Skip Page Navigation
NASA JPL Caltech
NASA Logo - Jet Propulsion Laboratory + View the NASA Portal
+ Near-Earth Object (NEO) Program
Search JPL
JPL Home Earth Solar System Stars & Galaxies Technology
JPL Solar System Dynamics
BODIES ORBITS EPHEMERIDES TOOLS PHYSICAL DATA DISCOVERY FAQ SITE MAP
JPL Small-Body Database Browser
Search: [ help ]  
(2000 EM26)
Classification: Aten [NEO, PHA]          SPK-ID: 3092253
Ephemeris | Orbit Diagram | Orbital Elements | Physical Parameters | Close-Approach Data ]

[ show orbit diagram ]
Orbital Elements at Epoch 2457400.5 (2016-Jan-13.0) TDB
Reference: JPL 11 (heliocentric ecliptic J2000)
 Element Value Uncertainty (1-sigma)   Units 
e .4688956711580589 0.00226  
a .8165925703639439 0.001157 au
q .433695849020458 0.0024599 au
i 3.910678339625518 0.020183 deg
node 344.9921973796646 0.0074946 deg
peri 24.27933560520691 0.16614 deg
M 300.3554503092425 4.1615 deg
tp 2457445.155486641443
(2016-Feb-26.65548664)
3.2106 JED
period 269.5296598644729
0.74
0.57283
0.001568
d
yr
n 1.335660053817521 0.0028387 deg/d
Q 1.19948929170743 0.0016995 au
  Orbit Determination Parameters
   # obs. used (total)      32  
   data-arc span      9 days  
   first obs. used      2000-03-05  
   last obs. used      2000-03-14  
   planetary ephem.      DE431  
   SB-pert. ephem.      SB431-BIG16  
   condition code      7  
   fit RMS      .6252  
   data source      ORB  
   producer      Otto Matic  
   solution date      2014-Jun-13 01:56:17  

Additional Information
 Earth MOID = .0189175 au 
 Jupiter MOID = 4.25722 au 
 T_jup = 7.070 
[ show covariance matrix ]

Ephemeris | Orbit Diagram | Orbital Elements | Physical Parameters | Close-Approach Data ]

Physical Parameter Table
Parameter Symbol Value Units Sigma Reference Notes
absolute magnitude H 22.1 mag n/a E2014D09  

[ show close-approach data ]
Ephemeris | Orbit Diagram | Orbital Elements | Physical Parameters | Close-Approach Data ]
ABOUT SSD CREDITS/AWARDS PRIVACY/COPYRIGHT GLOSSARY LINKS
FirstGov 2016-Feb-11 08:43 UT
(server date/time)  
NASA Home Page
Site Manager:   Ryan S. Park
Webmaster  Alan B. Chamberlin